[[{"header":{"parameterUnit":"m.s-1","parameterCategory":1,"la1":30.2991,"la2":30.254,"lo1":-89.0895,"lo2":-89.0444,"dy":0.0017,"dx":0.0017,"nx":28,"ny":28,"refTime":"2026-03-03T09:00:00:Z","depth":0,"parameterNumber":2,"parameterNumberName":"U-component_of_WINDS"},"data":[0,0,0,0,0,0,0,0,0,0,0,0,0,0,0,0,0,0,0,0,0,0,0,0,0,0,0,0,0,0,0,0,0,0,0,0,0,0,0,0,0,0,0,0,0,0,0,0,0,0,0,0,0,0,0,0,0,0,-3.9374,-3.9376,0,-3.9511,-3.9512,-3.9514,-3.9535,-3.9534,-3.9533,-3.9532,-3.9668,-3.9673,-3.9678,0,0,0,0,0,0,0,0,0,0,0,0,0,-3.9131,-3.9136,-3.9374,-3.9376,-3.9378,-3.9511,-3.9513,-3.9514,-3.9535,-3.9534,-3.9532,-3.9531,-3.9667,-3.9672,-3.9678,0,0,0,0,0,0,0,0,0,0,0,0,0,-3.9249,-3.9137,-3.9374,-3.9404,-3.9408,-3.951,-3.9513,-3.9515,-3.9536,-3.9534,-3.9532,-3.953,-3.9665,-3.9672,-3.9679,-3.9759,0,0,-3.9701,-3.9704,0,0,0,0,0,0,0,0,-3.9242,-3.9258,-3.9398,-3.9402,-3.9407,-3.9504,-3.9477,-3.9597,-3.9536,-3.9487,-3.9532,-3.9529,-3.9615,-3.9626,-3.9656,-3.9766,-3.9771,-3.9701,-3.9706,-3.9709,-3.9711,0,0,0,0,0,0,0,-3.9234,-3.9252,-3.9428,-3.94,-3.9406,-3.9411,-3.9426,-3.95,-3.9559,-3.9491,-3.9493,-3.9509,-3.9617,-3.9649,-3.9659,-3.9773,-3.9701,-3.9707,-3.9712,-3.9715,-3.9958,-3.996,0,0,0,0,0,0,-3.9221,-3.9245,-3.9424,-3.9432,-3.9319,-3.9417,-3.9433,-3.9475,-3.9559,-3.957,-3.9511,-3.951,-3.9637,-3.9651,-3.9664,-3.9763,-3.9709,-3.9715,-3.9719,-3.9956,-3.9958,-3.9961,0,0,0,0,0,0,-3.9215,-3.9236,-3.9418,-3.934,-3.9363,-3.9423,-3.9469,-3.9478,-3.951,-3.9573,-3.9584,-3.9532,-3.9636,-3.9654,-3.9736,-3.9768,-3.9719,-3.9725,-3.9953,-3.9957,-3.996,-3.9963,0,0,0,0,0,0,-3.9208,-3.9234,-3.9265,-3.934,-3.9367,-3.9488,-3.9471,-3.9482,-3.9523,-3.9523,-3.9596,-3.9606,-3.9636,-3.9725,-3.9743,-3.9777,-3.9731,-3.995,-3.9955,-3.9959,-3.996,-3.9966,-3.9971,0,0,0,0,0,-3.92,-3.926,-3.9267,-3.9288,-3.9407,-3.949,-3.9505,-3.9539,-3.9525,-3.9557,-3.9598,-3.9604,-3.9763,-3.9733,-3.9754,-3.9791,-3.9949,-3.9954,-3.9958,-3.9958,-3.9965,-3.9971,0,0,0,0,0,0,-3.9185,-3.927,-3.9278,-3.9365,-3.942,-3.9493,-3.9534,-3.9546,-3.9605,-3.9602,-3.9642,-3.9658,-3.9738,-3.9773,-3.9739,-3.9874,-3.9855,-3.9864,-3.9847,-3.9854,-3.986,-3.9848,-3.9737,0,0,0,0,0,-3.9193,-3.9253,-3.9324,-3.9393,-3.9421,-3.9473,-3.951,-3.9532,-3.959,-3.9613,-3.9661,-3.9717,-3.9779,-3.9819,-3.988,-3.9967,-3.9983,-4.0003,-4.0008,-4.0012,-4.0018,-4.0067,-4.0077,-3.9977,-3.9977,-3.9977,0,0,-3.9207,-3.9261,-3.9297,-3.9392,-3.9437,-3.9499,-3.9492,-3.9557,-3.9603,-3.9623,-3.9703,-3.9741,-3.9806,-3.9891,-3.993,-3.9922,-4.0051,-4.0018,-4.0021,-4.0025,-4.0073,-4.0083,-4.0091,-3.998,-3.998,-3.9979,0,0,-3.9265,-3.9313,-3.9376,-3.9422,-3.9492,-3.9527,-3.9543,-3.9615,-3.9641,-3.9723,-3.9739,-3.9795,-3.9902,-3.9948,-3.9985,-4.0066,-4.0073,-4.0085,-4.0111,-4.0158,-4.0166,-4.0173,-4.0201,-4.021,-4.0092,-4.0092,-4.0092,0,-3.9274,-3.9368,-3.9406,-3.9472,-3.9513,-3.9537,-3.9601,-3.9644,-3.973,-3.9758,-3.9749,-3.9885,-3.9931,-4.0027,-4.0047,-4.0077,-4.0095,-4.0074,-4.0162,-4.017,-4.0177,-4.0204,-4.0214,-4.0092,-4.0092,-4.0092,-4.0092,0,-3.9375,-3.944,-3.9483,-3.9567,-3.9614,-3.9678,-3.9727,-3.977,-3.9789,-3.9825,-3.9909,-3.9965,-4.0038,-4.0064,-4.0082,-4.0163,-4.0156,-4.0155,-4.0135,-4.0187,-4.0212,-4.0223,-4.0094,-4.0093,-4.0093,-4.0093,0,0,-3.9423,-3.9531,-3.9545,-3.9584,-3.9665,-3.9716,-3.9783,-3.9856,-3.9892,-3.9952,-4.0008,-4.01,-4.01,-4.0142,-4.0167,-4.0209,-4.0268,-4.0202,-4.0204,-4.0211,-4.0361,-4.0359,-4.037,-4.0276,-4.0278,-4.028,-4.0355,0,-3.9489,-3.9608,-3.9646,-3.9745,-3.9806,-3.9832,-3.989,-3.9946,-3.9982,-4.004,-4.008,-4.0144,-4.0139,-4.0165,-4.0209,-4.0252,-4.0298,-4.0247,-4.0327,-4.0329,-4.0307,-4.0384,-4.0383,-4.045,-4.0365,-4.0367,-4.0368,0,-3.958,-3.9643,-3.9748,-3.9823,-3.985,-3.9902,-3.9973,-4.0028,-4.0093,-4.0116,-4.0166,-4.0188,-4.0259,-4.0239,-4.0337,-4.0302,-4.0338,-4.0364,-4.0368,-4.0374,-4.0349,-4.039,-4.0473,-4.0482,-4.0384,-4.0383,-4.0382,0,-3.9602,-3.9714,-3.9791,-3.9824,-3.9914,-3.995,-3.9989,-4.0052,-4.0095,-4.0158,-4.0186,-4.0256,-4.0293,-4.0347,-4.0388,-4.037,-4.0483,-4.0466,-4.0503,-4.0502,-4.0523,-4.052,-4.061,-4.055,-4.055,-4.055,-4.055,0,-3.967,-3.9733,-3.9803,-3.985,-3.9922,-3.9967,-4.0037,-4.0078,-4.0135,-4.019,-4.0218,-4.027,-4.0322,-4.0381,-4.0414,-4.049,-4.0507,-4.0528,-4.0535,-4.0524,-4.0521,-4.0545,-4.0541,-4.0553,-4.0552,-4.0552,-4.0551,0,-3.9705,-3.9755,-3.9841,-3.992,-3.9942,-3.9991,-4.0059,-4.0107,-4.0146,-4.0217,-4.0236,-4.0298,-4.0369,-4.0417,-4.0507,-4.053,-4.0612,-4.0619,-4.0589,-4.0593,-4.0627,-4.0622,-4.0732,-4.0749,-4.0681,-4.0681,-4.0682,0,-3.9743,-3.9792,-3.9878,-3.9918,-3.9958,-4.0022,-4.0066,-4.0114,-4.0158,-4.0238,-4.0276,-4.035,-4.041,-4.0523,-4.0576,-4.0646,-4.0654,-4.0688,-4.0664,-4.0652,-4.0652,-4.0648,-4.0653,-4.069,-4.0691,-4.0691,-4.0692,0,-3.9805,-3.9828,-3.9891,-3.9964,-4.0016,-4.0075,-4.0134,-4.0165,-4.0223,-4.0273,-4.0347,-4.0394,-4.0489,-4.0561,-4.0637,-4.0677,-4.0694,-4.07,-4.0712,-4.0699,-4.0679,-4.0688,-4.0597,-4.0696,-4.0695,-4.0695,-4.0695,-4.0695,-3.9842,-3.9887,-3.9955,-4.0025,-4.0075,-4.0131,-4.0179,-4.0226,-4.0289,-4.037,-4.0395,-4.0472,-4.0538,-4.0642,-4.0684,-4.0745,-4.0741,-4.0759,-4.0763,-4.0766,-4.0765,-4.0672,-4.0759,-4.0759,-4.0759,-4.0759,-4.0759,0,-3.9903,-3.995,-4.0014,-4.0096,-4.0152,-4.0166,-4.0233,-4.0278,-4.0346,-4.0407,-4.0467,-4.0553,-4.0625,-4.0685,-4.0759,-4.0796,-4.0806,-4.0814,-4.081,-4.0819,-4.0765,-4.0746,-4.0805,-4.0805,-4.0805,-4.0805,-4.0805,-4.0805,-3.9942,-4.002,-4.0051,-4.0155,-4.0201,-4.0277,-4.0314,-4.0366,-4.0415,-4.051,-4.057,-4.0609,-4.067,-4.075,-4.0816,-4.0832,-4.0857,-4.0863,-4.088,-4.0828,-4.0822,-4.0817,-4.08,-4.0869,-4.0869,-4.0929,-4.093,-4.093]},{"header":{"parameterUnit":"m.s-1","parameterCategory":1,"la1":30.2991,"la2":30.254,"lo1":-89.0895,"lo2":-89.0444,"dy":0.0017,"dx":0.0017,"nx":28,"ny":28,"refTime":"2026-03-03T09:00:00:Z","depth":0,"parameterNumber":3,"parameterNumberName":"V-component_of_WINDS"},"data":[0,0,0,0,0,0,0,0,0,0,0,0,0,0,0,0,0,0,0,0,0,0,0,0,0,0,0,0,0,0,0,0,0,0,0,0,0,0,0,0,0,0,0,0,0,0,0,0,0,0,0,0,0,0,0,0,0,0,1.8967,1.8968,0,1.9047,1.9048,1.9049,1.908,1.9079,1.9079,1.9079,1.9158,1.916,1.9163,0,0,0,0,0,0,0,0,0,0,0,0,0,1.8841,1.8843,1.8967,1.8968,1.8969,1.9047,1.9048,1.9049,1.908,1.9079,1.9079,1.9079,1.9157,1.916,1.9163,0,0,0,0,0,0,0,0,0,0,0,0,0,1.8906,1.8844,1.8967,1.8994,1.8997,1.9046,1.9048,1.9049,1.908,1.9079,1.9079,1.9079,1.9156,1.916,1.9163,1.9191,0,0,1.9174,1.9175,0,0,0,0,0,0,0,0,1.8902,1.891,1.8989,1.8992,1.8996,1.9053,1.9032,1.9097,1.908,1.9048,1.9079,1.9079,1.9123,1.9129,1.9145,1.9195,1.9198,1.9174,1.9176,1.9178,1.9179,0,0,0,0,0,0,0,1.8897,1.8907,1.8998,1.899,1.8994,1.9002,1.9011,1.9045,1.9086,1.9051,1.9053,1.9062,1.9125,1.9142,1.9147,1.9199,1.9174,1.9177,1.9179,1.9181,1.9279,1.928,0,0,0,0,0,0,1.8889,1.8903,1.8996,1.9001,1.8947,1.9004,1.9014,1.9035,1.9086,1.9094,1.9063,1.9064,1.9136,1.9143,1.915,1.9188,1.9178,1.9181,1.9183,1.9279,1.928,1.928,0,0,0,0,0,0,1.8886,1.8897,1.8993,1.8953,1.8966,1.9007,1.903,1.9037,1.9053,1.9095,1.9103,1.9072,1.9136,1.9145,1.9182,1.9191,1.9182,1.9186,1.9278,1.9279,1.928,1.9263,0,0,0,0,0,0,1.8882,1.8895,1.8906,1.8953,1.8968,1.9023,1.903,1.9038,1.9059,1.9061,1.9106,1.9113,1.9136,1.9176,1.9185,1.9196,1.9188,1.9278,1.9279,1.928,1.9263,1.9263,1.9263,0,0,0,0,0,1.8877,1.8897,1.8906,1.8917,1.8982,1.9023,1.9032,1.9059,1.906,1.9071,1.9099,1.9111,1.9189,1.918,1.919,1.9202,1.9277,1.9278,1.928,1.9263,1.9263,1.9263,0,0,0,0,0,0,1.8848,1.8903,1.8914,1.895,1.8982,1.9028,1.9043,1.9058,1.909,1.909,1.9122,1.9132,1.9166,1.9188,1.9176,1.9233,1.9234,1.9237,1.9218,1.9218,1.9218,1.9212,1.9191,0,0,0,0,0,1.8846,1.8876,1.8922,1.8948,1.8964,1.9001,1.902,1.9039,1.9073,1.9086,1.9116,1.9148,1.9181,1.9201,1.9232,1.9266,1.9277,1.928,1.928,1.928,1.9282,1.9305,1.9307,1.9284,1.9284,1.9284,0,0,1.8842,1.8875,1.8891,1.8943,1.8971,1.9001,1.9012,1.9042,1.9065,1.909,1.9128,1.9151,1.9189,1.9226,1.9243,1.9244,1.9292,1.9282,1.9281,1.9284,1.9306,1.9308,1.931,1.9285,1.9285,1.9285,0,0,1.8849,1.8877,1.8903,1.8931,1.8973,1.8998,1.9004,1.905,1.9067,1.9105,1.9125,1.9153,1.9207,1.9234,1.9255,1.9277,1.929,1.9286,1.9287,1.9308,1.931,1.9312,1.9321,1.9324,1.9288,1.9288,1.9288,0,1.8837,1.8884,1.8915,1.8945,1.8968,1.8995,1.9023,1.9048,1.9097,1.9112,1.9114,1.9184,1.9212,1.9256,1.9262,1.9277,1.9287,1.9281,1.9308,1.931,1.9312,1.9321,1.9324,1.9288,1.9288,1.9288,1.9288,0,1.8869,1.8901,1.8917,1.8967,1.8991,1.902,1.9056,1.9078,1.9095,1.912,1.916,1.9195,1.9235,1.9247,1.9263,1.9295,1.9295,1.9301,1.9303,1.9313,1.9322,1.9325,1.9287,1.9287,1.9287,1.9287,0,0,1.8857,1.8926,1.8931,1.8955,1.9005,1.9031,1.9062,1.9103,1.9121,1.9155,1.9183,1.923,1.9238,1.9261,1.9281,1.93,1.9318,1.9305,1.9307,1.9307,1.9356,1.9351,1.9355,1.9327,1.9328,1.9329,1.9354,0,1.8872,1.8929,1.8959,1.9003,1.9035,1.9062,1.909,1.9123,1.9149,1.9179,1.9207,1.924,1.9247,1.9262,1.9282,1.9311,1.9328,1.931,1.9354,1.9355,1.9343,1.9359,1.9353,1.9375,1.9357,1.9358,1.9358,0,1.8895,1.8931,1.8979,1.9029,1.9043,1.9067,1.9108,1.9137,1.9177,1.9194,1.9223,1.9243,1.9278,1.9278,1.9327,1.9314,1.9334,1.9352,1.9353,1.9358,1.9357,1.9365,1.9382,1.9386,1.9364,1.9364,1.9363,0,1.8883,1.8944,1.8981,1.9001,1.9059,1.9075,1.91,1.914,1.9164,1.92,1.9216,1.9256,1.9277,1.9308,1.9339,1.9336,1.9386,1.9388,1.9402,1.9401,1.941,1.9409,1.9431,1.9423,1.9423,1.9423,1.9422,0,1.8896,1.8925,1.8977,1.9,1.9034,1.9069,1.9102,1.9128,1.9164,1.9194,1.9219,1.9246,1.9286,1.9318,1.9343,1.9381,1.939,1.9406,1.9412,1.9403,1.9402,1.9417,1.9416,1.9423,1.9423,1.9423,1.9423,0,1.8888,1.8924,1.8967,1.902,1.9034,1.9056,1.9102,1.9126,1.9154,1.919,1.9201,1.9245,1.9284,1.9319,1.937,1.9387,1.9427,1.9434,1.9414,1.9417,1.9429,1.9428,1.9462,1.9469,1.9455,1.9455,1.9455,0,1.8894,1.8917,1.8973,1.8995,1.902,1.9055,1.9081,1.9117,1.9143,1.9192,1.921,1.9252,1.9287,1.935,1.9386,1.9426,1.9435,1.9444,1.9441,1.9433,1.9437,1.9435,1.9438,1.9444,1.9444,1.9444,1.9444,0,1.8901,1.8919,1.8954,1.8998,1.9028,1.9063,1.9099,1.9115,1.9159,1.9186,1.9228,1.9256,1.9311,1.9352,1.9398,1.9423,1.9441,1.9445,1.9451,1.9442,1.943,1.9438,1.9414,1.9444,1.9444,1.9444,1.9444,1.9444,1.8901,1.8924,1.8968,1.9007,1.9039,1.9073,1.9099,1.9132,1.9167,1.9215,1.9235,1.9278,1.932,1.9383,1.941,1.9444,1.9447,1.9454,1.9457,1.9458,1.9457,1.9425,1.9452,1.9452,1.9452,1.9452,1.9452,0,1.891,1.894,1.8977,1.9028,1.906,1.9076,1.9118,1.9143,1.9181,1.922,1.9255,1.9304,1.9346,1.9387,1.9431,1.9451,1.946,1.9461,1.946,1.9466,1.9451,1.9443,1.9453,1.9453,1.9453,1.9453,1.9453,1.9453,1.8918,1.8959,1.8982,1.9039,1.907,1.9113,1.9136,1.9168,1.9199,1.9254,1.9289,1.9316,1.9356,1.9404,1.9443,1.9455,1.947,1.9469,1.9482,1.9467,1.9467,1.9466,1.9458,1.9471,1.9471,1.9494,1.9494,1.9494]}]]